Tracking 19651 objects as of 23-Apr-2019
HD Live streaming from Space Station
objects crossing your sky now

ANNA 1B

Track ANNA 1B now!
10-day predictions
ANNA 1B is classified as:


NORAD ID: 446
Int'l Code: 1962-060A
Perigee: 1,081.5 km
Apogee: 1,186.7 km
Inclination: 50.1 °
Period: 107.8 minutes
Semi major axis: 7505 km
RCS: 0.8414 m2 (medium)
Launch date: October 31, 1962
Source: United States (US)
Launch site: AIR FORCE EASTERN TEST RANGE (AFETR)
aabbcc
Your satellite tracking list
Your tracking list is empty




NASA's NSSDC Master Catalog

Two Line Element Set (TLE):
1   446U 62060A   19111.42557028 -.00000147  00000-0 -40796-4 0  9998
2   446  50.1416  81.8365 0070098 177.8061 324.5689 13.35268079754892
Source of the keplerian elements: AFSPC